Simultaneous Nadir Overpasses (SNOs) Predictions

Prediction of SNOs between AURA and NPP Satellite Orbit:

Table of predicted SNOs for the next 14.0 days since TLE Epoch: 12/24/2022
Index Date (AURA) Time (AURA) Lat,Lon (AURA) SZA (AURA ) Date (NPP) Time (NPP) Lat,Lon (NPP) SZA (NPP ) Distance(km) Time Diff (sec)
1 12/24/2022 19:09:42 79.31, 148.48 115.58 12/24/2022 19:08:54 79.31, 148.53 115.61 0.98 48
2 12/24/2022 19:59:04 -79.50, -42.56 64.69 12/24/2022 19:59:34 -79.49, -42.70 64.69 3.01 30
3 12/27/2022 11:26:08 79.33, -95.48 115.53 12/27/2022 11:25:52 79.32, -95.60 115.56 2.47 16
4 12/27/2022 12:15:27 -79.63, 74.29 64.91 12/27/2022 12:16:28 -79.63, 74.29 64.95 0.12 61
5 12/30/2022 02:53:10 -79.21,-147.97 64.41 12/30/2022 02:52:08 -79.21,-147.95 64.36 0.45 62
6 12/30/2022 03:42:29 79.47, 21.40 115.24 12/30/2022 03:42:45 79.46, 21.31 115.25 2.01 16
7 01/01/2023 19:09:33 -79.30, -31.52 64.66 01/01/2023 19:09:04 -79.29, -31.61 64.62 1.75 29
8 01/01/2023 19:58:50 79.62, 138.39 114.89 01/01/2023 19:59:38 79.63, 138.50 114.83 2.40 48
9 01/04/2023 10:36:35 79.10, -84.49 115.42 01/04/2023 10:35:22 79.10, -84.60 115.50 2.49 73
10 01/04/2023 11:25:53 -79.46, 85.51 65.09 01/04/2023 11:25:57 -79.46, 85.52 65.09 0.21 4
11 01/07/2023 02:52:52 79.36, 33.09 114.82 01/07/2023 02:52:12 79.37, 33.23 114.82 3.03 40



Historial Predications of SNOs between AURA and NPP
